Time,TemperatureF,DewpointF,PressureIn,WindDirection,WindDirectionDegrees,WindSpeedMPH,WindSpeedGustMPH,Humidity,HourlyPrecipIn,Conditions,Clouds,dailyrainin,SoftwareType,DateUTC
2013-02-05 00:00:00,13.0,9.6,29.76,SW,225,2.0,2.0,86,0.00,,,0.00,Wunderground v.1.15,2013-02-05 06:00:00,
2013-02-05 00:06:00,13.1,9.7,29.75,SSE,151,2.0,6.0,86,0.00,,,0.00,Wunderground v.1.15,2013-02-05 06:06:00,
2013-02-05 00:12:00,13.2,9.8,29.76,SSW,198,1.0,3.0,86,0.00,,,0.00,Wunderground v.1.15,2013-02-05 06:12:00,
2013-02-05 00:17:00,13.3,10.2,29.75,SSW,201,1.0,3.0,87,0.00,,,0.00,Wunderground v.1.15,2013-02-05 06:17:00,
2013-02-05 00:23:00,13.4,10.3,29.75,SSW,206,1.0,1.0,87,0.00,,,0.00,Wunderground v.1.15,2013-02-05 06:23:00,
2013-02-05 00:28:00,13.4,10.3,29.75,SW,225,1.0,2.0,87,0.00,,,0.00,Wunderground v.1.15,2013-02-05 06:28:00,
2013-02-05 00:34:00,13.5,10.4,29.74,SSW,197,1.0,2.0,87,0.00,,,0.00,Wunderground v.1.15,2013-02-05 06:34:00,
2013-02-05 00:40:00,13.6,10.5,29.74,SW,214,1.0,1.0,87,0.00,,,0.00,Wunderground v.1.15,2013-02-05 06:40:00,
2013-02-05 00:46:00,13.7,10.5,29.73,SSW,213,0.0,1.0,87,0.00,,,0.00,Wunderground v.1.15,2013-02-05 06:46:00,
2013-02-05 00:52:00,13.8,10.9,29.73,WSW,253,0.0,1.0,88,0.00,,,0.00,Wunderground v.1.15,2013-02-05 06:52:00,
2013-02-05 00:58:00,13.9,11.0,29.73,South,181,0.0,1.0,88,0.00,,,0.00,Wunderground v.1.15,2013-02-05 06:58:00,
2013-02-05 01:04:00,14.1,11.2,29.73,SW,215,0.0,0.0,88,0.00,,,0.00,Wunderground v.1.15,2013-02-05 07:04:00,
2013-02-05 01:09:00,14.2,11.3,29.73,SSW,196,0.0,1.0,88,0.00,,,0.00,Wunderground v.1.15,2013-02-05 07:09:00,
2013-02-05 01:15:00,14.3,11.4,29.72,SSW,211,1.0,2.0,88,0.00,,,0.00,Wunderground v.1.15,2013-02-05 07:15:00,
2013-02-05 01:21:00,14.5,11.9,29.72,SSW,208,1.0,1.0,89,0.00,,,0.00,Wunderground v.1.15,2013-02-05 07:21:00,
2013-02-05 01:26:00,14.7,12.0,29.72,SSW,204,1.0,2.0,89,0.00,,,0.00,Wunderground v.1.15,2013-02-05 07:26:00,
2013-02-05 01:32:00,14.8,12.1,29.72,South,189,1.0,1.0,89,0.00,,,0.00,Wunderground v.1.15,2013-02-05 07:32:00,
2013-02-05 01:38:00,15.0,12.3,29.72,SW,232,0.0,1.0,89,0.00,,,0.00,Wunderground v.1.15,2013-02-05 07:38:00,
2013-02-05 01:43:00,15.2,12.5,29.71,SW,231,0.0,0.0,89,0.00,,,0.00,Wunderground v.1.15,2013-02-05 07:43:00,
2013-02-05 01:49:00,15.3,12.6,29.71,SSW,196,0.0,2.0,89,0.00,,,0.00,Wunderground v.1.15,2013-02-05 07:49:00,
2013-02-05 01:54:00,15.4,12.7,29.71,SSE,150,0.0,1.0,89,0.00,,,0.00,Wunderground v.1.15,2013-02-05 07:54:00,
2013-02-05 02:00:00,15.6,12.9,29.71,WSW,241,0.0,0.0,89,0.00,,,0.00,Wunderground v.1.15,2013-02-05 08:00:00,
2013-02-05 02:06:00,15.8,13.1,29.70,SSW,213,0.0,1.0,89,0.00,,,0.00,Wunderground v.1.15,2013-02-05 08:06:00,
2013-02-05 02:12:00,15.9,13.5,29.71,WSW,244,0.0,0.0,90,0.00,,,0.00,Wunderground v.1.15,2013-02-05 08:12:00,
2013-02-05 02:17:00,16.1,13.7,29.72,WSW,245,0.0,0.0,90,0.00,,,0.00,Wunderground v.1.15,2013-02-05 08:17:00,
2013-02-05 02:23:00,16.3,13.9,29.72,WSW,247,0.0,1.0,90,0.00,,,0.00,Wunderground v.1.15,2013-02-05 08:23:00,
2013-02-05 02:29:00,16.5,14.1,29.72,WSW,247,0.0,1.0,90,0.00,,,0.00,Wunderground v.1.15,2013-02-05 08:29:00,
2013-02-05 02:34:00,16.7,14.3,29.72,West,263,0.0,0.0,90,0.00,,,0.00,Wunderground v.1.15,2013-02-05 08:34:00,
2013-02-05 02:40:00,16.7,14.0,29.72,West,263,0.0,0.0,89,0.00,,,0.00,Wunderground v.1.15,2013-02-05 08:40:00,
2013-02-05 02:46:00,16.7,14.0,29.72,West,262,0.0,0.0,89,0.00,,,0.00,Wunderground v.1.15,2013-02-05 08:46:00,
2013-02-05 02:51:00,16.8,14.4,29.71,West,262,0.0,0.0,90,0.00,,,0.00,Wunderground v.1.15,2013-02-05 08:51:00,
2013-02-05 02:57:00,17.0,14.8,29.71,East,92,0.0,1.0,91,0.00,,,0.00,Wunderground v.1.15,2013-02-05 08:57:00,
2013-02-05 03:02:00,17.2,15.0,29.71,East,92,0.0,0.0,91,0.00,,,0.00,Wunderground v.1.15,2013-02-05 09:02:00,
2013-02-05 03:08:00,17.3,14.9,29.71,East,92,0.0,0.0,90,0.00,,,0.00,Wunderground v.1.15,2013-02-05 09:08:00,
2013-02-05 03:14:00,17.5,15.1,29.71,East,92,0.0,1.0,90,0.00,,,0.00,Wunderground v.1.15,2013-02-05 09:14:00,
2013-02-05 03:19:00,17.6,15.2,29.71,East,92,0.0,1.0,90,0.00,,,0.00,Wunderground v.1.15,2013-02-05 09:19:00,
2013-02-05 03:25:00,17.7,15.3,29.70,East,92,0.0,0.0,90,0.00,,,0.00,Wunderground v.1.15,2013-02-05 09:25:00,
2013-02-05 03:31:00,17.7,15.3,29.70,East,92,0.0,0.0,90,0.00,,,0.00,Wunderground v.1.15,2013-02-05 09:31:00,
2013-02-05 03:37:00,17.8,15.4,29.70,East,92,0.0,0.0,90,0.00,,,0.00,Wunderground v.1.15,2013-02-05 09:37:00,
2013-02-05 03:42:00,17.9,15.5,29.70,East,92,0.0,0.0,90,0.00,,,0.00,Wunderground v.1.15,2013-02-05 09:42:00,
2013-02-05 03:48:00,18.0,15.6,29.70,East,92,0.0,0.0,90,0.00,,,0.00,Wunderground v.1.15,2013-02-05 09:48:00,
2013-02-05 03:54:00,18.1,15.9,29.70,SSW,203,0.0,0.0,91,0.00,,,0.00,Wunderground v.1.15,2013-02-05 09:54:00,
2013-02-05 03:59:00,18.5,16.6,29.70,SW,221,0.0,0.0,92,0.00,,,0.00,Wunderground v.1.15,2013-02-05 09:59:00,
2013-02-05 04:05:00,19.2,17.8,29.71,SSW,199,1.0,2.0,94,0.00,,,0.00,Wunderground v.1.15,2013-02-05 10:05:00,
2013-02-05 04:10:00,19.9,18.2,29.71,SW,220,1.0,1.0,93,0.00,,,0.00,Wunderground v.1.15,2013-02-05 10:10:00,
2013-02-05 04:15:00,20.4,18.7,29.70,SW,230,1.0,1.0,93,0.00,,,0.00,Wunderground v.1.15,2013-02-05 10:15:00,
2013-02-05 04:21:00,20.7,18.7,29.70,WSW,257,1.0,2.0,92,0.00,,,0.00,Wunderground v.1.15,2013-02-05 10:21:00,
2013-02-05 04:27:00,21.1,19.1,29.71,SSW,210,1.0,2.0,92,0.00,,,0.00,Wunderground v.1.15,2013-02-05 10:27:00,
2013-02-05 04:32:00,21.3,19.3,29.71,WSW,238,0.0,1.0,92,0.00,,,0.00,Wunderground v.1.15,2013-02-05 10:32:00,
2013-02-05 04:38:00,21.5,19.5,29.70,SW,229,0.0,1.0,92,0.00,,,0.00,Wunderground v.1.15,2013-02-05 10:38:00,
2013-02-05 04:44:00,21.7,19.7,29.71,WSW,249,0.0,0.0,92,0.00,,,0.00,Wunderground v.1.15,2013-02-05 10:44:00,
2013-02-05 04:50:00,22.0,20.0,29.71,WSW,240,0.0,0.0,92,0.00,,,0.00,Wunderground v.1.15,2013-02-05 10:50:00,
2013-02-05 04:56:00,22.4,20.4,29.72,WSW,241,1.0,4.0,92,0.00,,,0.00,Wunderground v.1.15,2013-02-05 10:56:00,
2013-02-05 05:01:00,22.7,20.7,29.72,WSW,245,1.0,2.0,92,0.00,,,0.00,Wunderground v.1.15,2013-02-05 11:01:00,
2013-02-05 05:06:00,23.2,21.2,29.72,SW,224,1.0,4.0,92,0.00,,,0.00,Wunderground v.1.15,2013-02-05 11:06:00,
2013-02-05 05:11:00,23.5,21.5,29.72,SW,218,1.0,1.0,92,0.00,,,0.00,Wunderground v.1.15,2013-02-05 11:11:00,
2013-02-05 05:16:00,23.7,21.7,29.72,WSW,246,2.0,4.0,92,0.00,,,0.00,Wunderground v.1.15,2013-02-05 11:16:00,
2013-02-05 05:22:00,23.9,21.7,29.72,WSW,239,2.0,2.0,91,0.00,,,0.00,Wunderground v.1.15,2013-02-05 11:22:00,
2013-02-05 05:28:00,24.0,21.8,29.72,WSW,242,2.0,3.0,91,0.00,,,0.00,Wunderground v.1.15,2013-02-05 11:28:00,
2013-02-05 05:33:00,24.1,21.9,29.73,West,259,1.0,2.0,91,0.00,,,0.00,Wunderground v.1.15,2013-02-05 11:33:00,
2013-02-05 05:39:00,24.2,22.0,29.73,West,266,1.0,3.0,91,0.00,,,0.00,Wunderground v.1.15,2013-02-05 11:39:00,
2013-02-05 05:44:00,24.3,22.1,29.73,West,261,1.0,4.0,91,0.00,,,0.00,Wunderground v.1.15,2013-02-05 11:44:00,
2013-02-05 05:50:00,24.4,21.9,29.74,WSW,253,1.0,4.0,90,0.00,,,0.00,Wunderground v.1.15,2013-02-05 11:50:00,
2013-02-05 05:56:00,24.4,21.9,29.74,SW,233,1.0,4.0,90,0.00,,,0.00,Wunderground v.1.15,2013-02-05 11:56:00,
2013-02-05 06:02:00,24.5,22.0,29.74,West,270,1.0,2.0,90,0.00,,,0.00,Wunderground v.1.15,2013-02-05 12:02:00,
2013-02-05 06:07:00,24.5,22.0,29.75,WSW,251,1.0,2.0,90,0.00,,,0.00,Wunderground v.1.15,2013-02-05 12:07:00,
2013-02-05 06:13:00,24.6,22.1,29.75,West,267,1.0,2.0,90,0.00,,,0.00,Wunderground v.1.15,2013-02-05 12:13:00,
2013-02-05 06:18:00,24.6,22.1,29.76,WNW,291,2.0,5.0,90,0.00,,,0.00,Wunderground v.1.15,2013-02-05 12:18:00,
2013-02-05 06:24:00,24.7,22.2,29.76,West,265,2.0,2.0,90,0.00,,,0.00,Wunderground v.1.15,2013-02-05 12:24:00,
2013-02-05 06:29:00,24.7,22.2,29.77,West,259,2.0,5.0,90,0.00,,,0.00,Wunderground v.1.15,2013-02-05 12:29:00,
2013-02-05 06:35:00,24.7,22.2,29.77,WNW,302,2.0,4.0,90,0.00,,,0.00,Wunderground v.1.15,2013-02-05 12:35:00,
2013-02-05 06:41:00,24.6,22.1,29.77,NNW,335,3.0,3.0,90,0.00,,,0.00,Wunderground v.1.15,2013-02-05 12:41:00,
2013-02-05 06:46:00,24.4,21.9,29.78,WSW,253,3.0,3.0,90,0.00,,,0.00,Wunderground v.1.15,2013-02-05 12:46:00,
2013-02-05 06:52:00,24.2,21.7,29.78,NNW,334,3.0,6.0,90,0.00,,,0.00,Wunderground v.1.15,2013-02-05 12:52:00,
2013-02-05 06:57:00,24.0,21.5,29.79,WSW,251,4.0,12.0,90,0.00,,,0.00,Wunderground v.1.15,2013-02-05 12:57:00,
2013-02-05 07:03:00,23.8,21.3,29.79,West,266,5.0,8.0,90,0.00,,,0.00,Wunderground v.1.15,2013-02-05 13:03:00,
2013-02-05 07:09:00,23.6,21.1,29.80,WNW,285,4.0,8.0,90,0.00,,,0.00,Wunderground v.1.15,2013-02-05 13:09:00,
2013-02-05 07:14:00,23.5,21.0,29.80,WNW,284,3.0,6.0,90,0.00,,,0.00,Wunderground v.1.15,2013-02-05 13:14:00,
2013-02-05 07:23:00,23.2,20.7,29.81,WNW,291,3.0,3.0,90,0.00,,,0.00,Wunderground v.1.15,2013-02-05 13:23:00,
2013-02-05 07:29:00,22.8,20.0,29.82,WSW,237,3.0,9.0,89,0.00,,,0.00,Wunderground v.1.15,2013-02-05 13:29:00,
2013-02-05 07:34:00,22.3,19.6,29.82,WNW,293,4.0,5.0,89,0.00,,,0.00,Wunderground v.1.15,2013-02-05 13:34:00,
2013-02-05 07:40:00,22.0,19.3,29.82,WNW,287,3.0,5.0,89,0.00,,,0.00,Wunderground v.1.15,2013-02-05 13:40:00,
2013-02-05 07:46:00,21.7,18.7,29.83,West,267,3.0,5.0,88,0.00,,,0.00,Wunderground v.1.15,2013-02-05 13:46:00,
2013-02-05 07:51:00,21.5,18.5,29.83,NW,315,3.0,3.0,88,0.00,,,0.00,Wunderground v.1.15,2013-02-05 13:51:00,
2013-02-05 07:57:00,21.1,17.8,29.84,North,5,3.0,4.0,87,0.00,,,0.00,Wunderground v.1.15,2013-02-05 13:57:00,
2013-02-05 08:03:00,20.7,17.2,29.85,West,279,3.0,8.0,86,0.00,,,0.00,Wunderground v.1.15,2013-02-05 14:03:00,
2013-02-05 08:09:00,20.3,16.5,29.85,WNW,298,4.0,8.0,85,0.00,,,0.00,Wunderground v.1.15,2013-02-05 14:09:00,
2013-02-05 08:14:00,20.0,15.9,29.85,WNW,291,3.0,5.0,84,0.00,,,0.00,Wunderground v.1.15,2013-02-05 14:14:00,
2013-02-05 08:20:00,19.6,15.6,29.86,West,265,3.0,3.0,84,0.00,,,0.00,Wunderground v.1.15,2013-02-05 14:20:00,
2013-02-05 08:25:00,19.3,15.3,29.86,NW,317,3.0,7.0,84,0.00,,,0.00,Wunderground v.1.15,2013-02-05 14:25:00,
2013-02-05 08:31:00,18.9,14.9,29.87,WNW,289,3.0,7.0,84,0.00,,,0.00,Wunderground v.1.15,2013-02-05 14:31:00,
2013-02-05 08:37:00,18.7,14.7,29.87,North,10,3.0,7.0,84,0.00,,,0.00,Wunderground v.1.15,2013-02-05 14:37:00,
2013-02-05 08:42:00,18.5,14.5,29.88,NW,306,3.0,9.0,84,0.00,,,0.00,Wunderground v.1.15,2013-02-05 14:42:00,
2013-02-05 08:48:00,18.3,14.3,29.88,WSW,240,3.0,9.0,84,0.00,,,0.00,Wunderground v.1.15,2013-02-05 14:48:00,
2013-02-05 08:53:00,18.2,14.2,29.89,NNW,327,2.0,3.0,84,0.00,,,0.00,Wunderground v.1.15,2013-02-05 14:53:00,
2013-02-05 08:59:00,17.9,13.6,29.90,WNW,283,3.0,7.0,83,0.00,,,0.00,Wunderground v.1.15,2013-02-05 14:59:00,
2013-02-05 09:05:00,17.6,13.3,29.90,NW,317,3.0,4.0,83,0.00,,,0.00,Wunderground v.1.15,2013-02-05 15:05:00,
2013-02-05 09:10:00,17.6,13.6,29.90,NW,305,3.0,4.0,84,0.00,,,0.00,Wunderground v.1.15,2013-02-05 15:10:00,
2013-02-05 09:16:00,17.4,13.1,29.91,North,355,2.0,6.0,83,0.00,,,0.00,Wunderground v.1.15,2013-02-05 15:16:00,
2013-02-05 09:22:00,17.2,12.9,29.91,NW,305,3.0,5.0,83,0.00,,,0.00,Wunderground v.1.15,2013-02-05 15:22:00,
2013-02-05 09:27:00,17.1,12.6,29.92,WNW,285,3.0,6.0,82,0.00,,,0.00,Wunderground v.1.15,2013-02-05 15:27:00,
2013-02-05 09:33:00,16.8,12.0,29.92,WSW,258,3.0,6.0,81,0.00,,,0.00,Wunderground v.1.15,2013-02-05 15:33:00,
2013-02-05 09:38:00,16.6,11.8,29.93,SSW,201,3.0,7.0,81,0.00,,,0.00,Wunderground v.1.15,2013-02-05 15:38:00,
2013-02-05 09:44:00,16.4,11.3,29.93,WNW,293,4.0,7.0,80,0.00,,,0.00,Wunderground v.1.15,2013-02-05 15:44:00,
2013-02-05 09:50:00,16.4,11.3,29.94,WNW,286,2.0,4.0,80,0.00,,,0.00,Wunderground v.1.15,2013-02-05 15:50:00,
2013-02-05 09:55:00,16.4,11.3,29.94,WNW,303,2.0,4.0,80,0.00,,,0.00,Wunderground v.1.15,2013-02-05 15:55:00,
2013-02-05 10:00:00,16.3,10.9,29.94,NNE,13,2.0,2.0,79,0.00,,,0.00,Wunderground v.1.15,2013-02-05 16:00:00,
2013-02-05 10:06:00,16.3,10.9,29.95,WNW,287,2.0,6.0,79,0.00,,,0.00,Wunderground v.1.15,2013-02-05 16:06:00,
2013-02-05 10:11:00,16.4,11.0,29.95,WNW,284,3.0,3.0,79,0.00,,,0.00,Wunderground v.1.15,2013-02-05 16:11:00,
2013-02-05 10:17:00,16.3,10.6,29.96,WNW,297,3.0,7.0,78,0.00,,,0.00,Wunderground v.1.15,2013-02-05 16:17:00,
2013-02-05 10:23:00,15.9,10.0,29.97,WNW,291,4.0,8.0,77,0.00,,,0.00,Wunderground v.1.15,2013-02-05 16:23:00,
2013-02-05 10:28:00,16.2,10.3,29.96,West,267,5.0,8.0,77,0.00,,,0.00,Wunderground v.1.15,2013-02-05 16:28:00,
2013-02-05 10:34:00,16.6,10.3,29.97,NNW,347,4.0,7.0,76,0.00,,,0.00,Wunderground v.1.15,2013-02-05 16:34:00,
2013-02-05 10:39:00,16.4,9.9,29.98,WNW,291,4.0,7.0,75,0.00,,,0.00,Wunderground v.1.15,2013-02-05 16:39:00,
2013-02-05 10:45:00,16.3,9.8,29.98,South,190,5.0,8.0,75,0.00,,,0.00,Wunderground v.1.15,2013-02-05 16:45:00,
2013-02-05 10:51:00,16.3,9.8,29.98,WSW,251,4.0,4.0,75,0.00,,,0.00,Wunderground v.1.15,2013-02-05 16:51:00,
2013-02-05 10:56:00,16.5,10.0,29.98,West,269,4.0,7.0,75,0.00,,,0.00,Wunderground v.1.15,2013-02-05 16:56:00,
2013-02-05 11:02:00,16.6,10.1,29.98,WSW,242,4.0,6.0,75,0.00,,,0.00,Wunderground v.1.15,2013-02-05 17:02:00,
2013-02-05 11:08:00,16.6,9.8,29.99,West,273,5.0,7.0,74,0.00,,,0.00,Wunderground v.1.15,2013-02-05 17:08:00,
2013-02-05 11:14:00,16.8,9.9,29.99,WNW,298,4.0,7.0,74,0.00,,,0.00,Wunderground v.1.15,2013-02-05 17:14:00,
2013-02-05 11:19:00,17.2,10.3,29.99,WSW,248,3.0,7.0,74,0.00,,,0.00,Wunderground v.1.15,2013-02-05 17:19:00,
2013-02-05 11:25:00,17.3,9.8,30.00,WSW,257,3.0,12.0,72,0.00,,,0.00,Wunderground v.1.15,2013-02-05 17:25:00,
2013-02-05 11:31:00,17.5,9.7,30.00,West,268,4.0,9.0,71,0.00,,,0.00,Wunderground v.1.15,2013-02-05 17:31:00,
2013-02-05 11:36:00,17.5,9.4,30.00,West,275,3.0,9.0,70,0.00,,,0.00,Wunderground v.1.15,2013-02-05 17:36:00,
2013-02-05 11:42:00,17.8,10.0,30.00,West,263,3.0,4.0,71,0.00,,,0.00,Wunderground v.1.15,2013-02-05 17:42:00,
2013-02-05 11:48:00,17.9,9.4,30.00,West,267,3.0,10.0,69,0.00,,,0.00,Wunderground v.1.15,2013-02-05 17:48:00,
2013-02-05 11:53:00,17.8,9.3,30.00,West,260,4.0,8.0,69,0.00,,,0.00,Wunderground v.1.15,2013-02-05 17:53:00,
2013-02-05 11:59:00,18.3,9.5,30.01,WNW,293,4.0,10.0,68,0.00,,,0.00,Wunderground v.1.15,2013-02-05 17:59:00,
2013-02-05 12:05:00,18.5,9.7,30.01,WNW,291,4.0,4.0,68,0.00,,,0.00,Wunderground v.1.15,2013-02-05 18:05:00,
2013-02-05 12:10:00,18.9,10.1,30.01,WSW,243,3.0,4.0,68,0.00,,,0.00,Wunderground v.1.15,2013-02-05 18:10:00,
2013-02-05 12:16:00,19.2,10.4,30.01,West,263,2.0,4.0,68,0.00,,,0.00,Wunderground v.1.15,2013-02-05 18:16:00,
2013-02-05 12:22:00,19.2,9.7,30.01,West,268,3.0,4.0,66,0.00,,,0.00,Wunderground v.1.15,2013-02-05 18:22:00,
2013-02-05 12:27:00,18.8,9.6,30.01,WNW,296,4.0,6.0,67,0.00,,,0.00,Wunderground v.1.15,2013-02-05 18:27:00,
2013-02-05 12:33:00,18.8,9.6,30.01,WNW,291,3.0,9.0,67,0.00,,,0.00,Wunderground v.1.15,2013-02-05 18:33:00,
2013-02-05 12:39:00,18.5,9.0,30.01,West,273,4.0,9.0,66,0.00,,,0.00,Wunderground v.1.15,2013-02-05 18:39:00,
2013-02-05 12:45:00,18.6,9.5,30.01,WNW,298,4.0,6.0,67,0.00,,,0.00,Wunderground v.1.15,2013-02-05 18:45:00,
2013-02-05 12:50:00,18.9,9.1,30.01,SW,236,3.0,3.0,65,0.00,,,0.00,Wunderground v.1.15,2013-02-05 18:50:00,
2013-02-05 12:56:00,18.9,9.1,30.01,WNW,300,3.0,6.0,65,0.00,,,0.00,Wunderground v.1.15,2013-02-05 18:56:00,
2013-02-05 13:02:00,18.9,9.1,30.01,SW,222,3.0,4.0,65,0.00,,,0.00,Wunderground v.1.15,2013-02-05 19:02:00,
2013-02-05 13:07:00,19.4,9.5,30.01,SW,215,3.0,6.0,65,0.00,,,0.00,Wunderground v.1.15,2013-02-05 19:07:00,
2013-02-05 13:13:00,19.7,9.5,30.01,WSW,251,2.0,3.0,64,0.00,,,0.00,Wunderground v.1.15,2013-02-05 19:13:00,
2013-02-05 13:19:00,19.7,9.1,30.01,WSW,245,2.0,4.0,63,0.00,,,0.00,Wunderground v.1.15,2013-02-05 19:19:00,
2013-02-05 13:25:00,20.0,9.1,30.02,WSW,237,2.0,5.0,62,0.00,,,0.00,Wunderground v.1.15,2013-02-05 19:25:00,
2013-02-05 13:31:00,20.1,9.2,30.02,SW,222,2.0,6.0,62,0.00,,,0.00,Wunderground v.1.15,2013-02-05 19:31:00,
2013-02-05 13:37:00,20.4,9.1,30.03,West,277,2.0,6.0,61,0.00,,,0.00,Wunderground v.1.15,2013-02-05 19:37:00,
2013-02-05 13:42:00,20.6,9.3,30.03,WSW,258,2.0,4.0,61,0.00,,,0.00,Wunderground v.1.15,2013-02-05 19:42:00,
2013-02-05 13:48:00,20.1,8.4,30.03,WSW,254,3.0,7.0,60,0.00,,,0.00,Wunderground v.1.15,2013-02-05 19:48:00,
2013-02-05 13:54:00,20.0,8.7,30.03,West,261,4.0,7.0,61,0.00,,,0.00,Wunderground v.1.15,2013-02-05 19:54:00,
2013-02-05 14:00:00,20.1,8.8,30.04,WSW,252,3.0,3.0,61,0.00,,,0.00,Wunderground v.1.15,2013-02-05 20:00:00,
2013-02-05 14:06:00,20.0,8.3,30.04,NNW,336,3.0,6.0,60,0.00,,,0.00,Wunderground v.1.15,2013-02-05 20:06:00,
2013-02-05 14:11:00,19.8,8.1,30.04,WSW,241,4.0,4.0,60,0.00,,,0.00,Wunderground v.1.15,2013-02-05 20:11:00,
2013-02-05 14:16:00,20.0,8.3,30.04,West,260,4.0,5.0,60,0.00,,,0.00,Wunderground v.1.15,2013-02-05 20:16:00,
2013-02-05 14:22:00,20.0,8.0,30.04,WSW,251,3.0,5.0,59,0.00,,,0.00,Wunderground v.1.15,2013-02-05 20:22:00,
2013-02-05 14:28:00,20.2,8.1,30.04,West,280,3.0,5.0,59,0.00,,,0.00,Wunderground v.1.15,2013-02-05 20:28:00,
2013-02-05 14:33:00,20.2,8.1,30.04,West,269,3.0,3.0,59,0.00,,,0.00,Wunderground v.1.15,2013-02-05 20:33:00,
2013-02-05 14:39:00,20.3,7.9,30.05,WNW,288,2.0,4.0,58,0.00,,,0.00,Wunderground v.1.15,2013-02-05 20:39:00,
2013-02-05 14:45:00,20.4,8.0,30.05,WNW,290,3.0,3.0,58,0.00,,,0.00,Wunderground v.1.15,2013-02-05 20:45:00,
2013-02-05 14:50:00,20.4,8.0,30.05,SW,220,3.0,3.0,58,0.00,,,0.00,Wunderground v.1.15,2013-02-05 20:50:00,
2013-02-05 14:56:00,20.4,7.6,30.04,West,272,2.0,3.0,57,0.00,,,0.00,Wunderground v.1.15,2013-02-05 20:56:00,
2013-02-05 15:02:00,20.5,7.7,30.04,WNW,287,2.0,2.0,57,0.00,,,0.00,Wunderground v.1.15,2013-02-05 21:02:00,
2013-02-05 15:07:00,20.5,7.7,30.04,WNW,291,2.0,5.0,57,0.00,,,0.00,Wunderground v.1.15,2013-02-05 21:07:00,
2013-02-05 15:13:00,20.4,8.0,30.04,NW,305,3.0,4.0,58,0.00,,,0.00,Wunderground v.1.15,2013-02-05 21:13:00,
2013-02-05 15:18:00,20.5,7.7,30.04,NW,308,3.0,4.0,57,0.00,,,0.00,Wunderground v.1.15,2013-02-05 21:18:00,
2013-02-05 15:24:00,20.5,8.0,30.04,WNW,284,3.0,3.0,58,0.00,,,0.00,Wunderground v.1.15,2013-02-05 21:24:00,
2013-02-05 15:30:00,20.5,8.0,30.04,NW,315,3.0,3.0,58,0.00,,,0.00,Wunderground v.1.15,2013-02-05 21:30:00,
2013-02-05 15:36:00,20.5,8.0,30.05,NNW,327,2.0,3.0,58,0.00,,,0.00,Wunderground v.1.15,2013-02-05 21:36:00,
2013-02-05 15:42:00,20.6,8.1,30.05,North,3,2.0,3.0,58,0.00,,,0.00,Wunderground v.1.15,2013-02-05 21:42:00,
2013-02-05 15:48:00,20.8,8.3,30.05,West,270,2.0,3.0,58,0.00,,,0.00,Wunderground v.1.15,2013-02-05 21:48:00,
2013-02-05 15:54:00,20.9,8.0,30.06,West,278,2.0,3.0,57,0.00,,,0.00,Wunderground v.1.15,2013-02-05 21:54:00,
2013-02-05 16:00:00,21.0,8.1,30.05,WNW,303,2.0,3.0,57,0.00,,,0.00,Wunderground v.1.15,2013-02-05 22:00:00,
2013-02-05 16:06:00,20.8,8.3,30.06,NNW,334,2.0,3.0,58,0.00,,,0.00,Wunderground v.1.15,2013-02-05 22:06:00,
2013-02-05 16:11:00,20.9,8.0,30.06,WNW,284,2.0,2.0,57,0.00,,,0.00,Wunderground v.1.15,2013-02-05 22:11:00,
2013-02-05 16:17:00,21.0,8.1,30.06,WNW,282,2.0,3.0,57,0.00,,,0.00,Wunderground v.1.15,2013-02-05 22:17:00,
2013-02-05 16:22:00,21.0,8.1,30.06,WNW,282,3.0,3.0,57,0.00,,,0.00,Wunderground v.1.15,2013-02-05 22:22:00,
2013-02-05 16:28:00,-999.9,-99.9,30.07,North,32767,-999.0,3.0,255,-99.99,,,0.00,Wunderground v.1.15,2013-02-05 22:28:00,
2013-02-05 16:34:00,-999.9,-99.9,30.07,North,32767,-999.0,0.0,255,-99.99,,,0.00,Wunderground v.1.15,2013-02-05 22:34:00,
2013-02-05 16:40:00,-999.9,-99.9,30.07,North,32767,-999.0,0.0,255,-99.99,,,0.00,Wunderground v.1.15,2013-02-05 22:40:00,
2013-02-05 16:45:00,-999.9,-99.9,30.07,North,32767,-999.0,0.0,255,-99.99,,,0.00,Wunderground v.1.15,2013-02-05 22:45:00,
2013-02-05 16:51:00,-999.9,-99.9,30.07,North,32767,-999.0,0.0,255,-99.99,,,0.00,Wunderground v.1.15,2013-02-05 22:51:00,
2013-02-05 16:57:00,-999.9,-99.9,30.08,North,32767,-999.0,0.0,255,-99.99,,,0.00,Wunderground v.1.15,2013-02-05 22:57:00,
2013-02-05 17:02:00,-999.9,-99.9,30.08,North,32767,-999.0,0.0,255,-99.99,,,0.00,Wunderground v.1.15,2013-02-05 23:02:00,
2013-02-05 17:08:00,19.0,-99.9,30.08,WNW,291,0.0,0.0,255,0.00,,,0.00,Wunderground v.1.15,2013-02-05 23:08:00,
2013-02-05 17:13:00,18.8,7.2,30.08,WNW,300,0.0,0.0,60,0.00,,,0.00,Wunderground v.1.15,2013-02-05 23:13:00,
2013-02-05 17:19:00,18.3,7.1,30.08,WNW,284,0.0,1.0,61,0.00,,,0.00,Wunderground v.1.15,2013-02-05 23:19:00,
2013-02-05 17:24:00,17.8,7.3,30.08,WNW,284,0.0,0.0,63,0.00,,,0.00,Wunderground v.1.15,2013-02-05 23:24:00,
2013-02-05 17:30:00,17.2,7.1,30.08,WNW,285,0.0,0.0,64,0.00,,,0.00,Wunderground v.1.15,2013-02-05 23:30:00,
2013-02-05 17:36:00,16.6,6.9,30.09,West,270,0.0,0.0,65,0.00,,,0.00,Wunderground v.1.15,2013-02-05 23:36:00,
2013-02-05 17:42:00,15.9,6.9,30.09,West,270,0.0,0.0,67,0.00,,,0.00,Wunderground v.1.15,2013-02-05 23:42:00,
2013-02-05 17:48:00,15.3,6.3,30.09,West,271,0.0,0.0,67,0.00,,,0.00,Wunderground v.1.15,2013-02-05 23:48:00,
2013-02-05 17:53:00,14.8,6.1,30.09,West,270,0.0,0.0,68,0.00,,,0.00,Wunderground v.1.15,2013-02-05 23:53:00,
2013-02-05 17:59:00,14.5,6.5,30.10,West,270,0.0,0.0,70,0.00,,,0.00,Wunderground v.1.15,2013-02-05 23:59:00,
2013-02-05 18:04:00,14.4,6.4,30.10,West,270,0.0,0.0,70,0.00,,,0.00,Wunderground v.1.15,2013-02-06 00:04:00,
2013-02-05 18:10:00,14.2,6.2,30.10,West,270,0.0,0.0,70,0.00,,,0.00,Wunderground v.1.15,2013-02-06 00:10:00,
2013-02-05 18:15:00,14.1,6.1,30.09,West,270,0.0,0.0,70,0.00,,,0.00,Wunderground v.1.15,2013-02-06 00:15:00,
2013-02-05 18:20:00,14.3,6.6,30.09,West,270,0.0,0.0,71,0.00,,,0.00,Wunderground v.1.15,2013-02-06 00:20:00,
2013-02-05 18:25:00,14.5,6.8,30.09,West,270,0.0,0.0,71,0.00,,,0.00,Wunderground v.1.15,2013-02-06 00:25:00,
2013-02-05 18:31:00,14.6,6.9,30.10,West,270,0.0,0.0,71,0.00,,,0.00,Wunderground v.1.15,2013-02-06 00:31:00,
2013-02-05 18:36:00,14.6,7.8,30.09,West,270,0.0,0.0,74,0.00,,,0.00,Wunderground v.1.15,2013-02-06 00:36:00,
2013-02-05 18:42:00,14.6,7.5,30.09,West,270,0.0,0.0,73,0.00,,,0.00,Wunderground v.1.15,2013-02-06 00:42:00,
2013-02-05 18:47:00,14.3,7.2,30.10,West,270,0.0,0.0,73,0.00,,,0.00,Wunderground v.1.15,2013-02-06 00:47:00,
2013-02-05 18:52:00,13.9,6.8,30.10,West,270,0.0,0.0,73,0.00,,,0.00,Wunderground v.1.15,2013-02-06 00:52:00,
2013-02-05 18:57:00,13.4,6.4,30.10,West,270,0.0,0.0,73,0.00,,,0.00,Wunderground v.1.15,2013-02-06 00:57:00,
2013-02-05 19:02:00,12.8,5.8,30.10,West,272,0.0,0.0,73,0.00,,,0.00,Wunderground v.1.15,2013-02-06 01:02:00,
2013-02-05 19:07:00,12.2,5.5,30.10,West,270,0.0,0.0,74,0.00,,,0.00,Wunderground v.1.15,2013-02-06 01:07:00,
2013-02-05 19:12:00,11.4,5.0,30.10,West,270,0.0,0.0,75,0.00,,,0.00,Wunderground v.1.15,2013-02-06 01:12:00,
2013-02-05 19:18:00,11.0,4.9,30.10,West,270,0.0,0.0,76,0.00,,,0.00,Wunderground v.1.15,2013-02-06 01:18:00,
2013-02-05 19:23:00,10.6,4.5,30.10,West,272,0.0,0.0,76,0.00,,,0.00,Wunderground v.1.15,2013-02-06 01:23:00,
2013-02-05 19:29:00,10.0,3.9,30.10,West,272,0.0,0.0,76,0.00,,,0.00,Wunderground v.1.15,2013-02-06 01:29:00,
2013-02-05 19:35:00,9.4,3.4,30.10,West,272,0.0,0.0,76,0.00,,,0.00,Wunderground v.1.15,2013-02-06 01:35:00,
2013-02-05 19:40:00,9.4,4.2,30.10,West,272,0.0,0.0,79,0.00,,,0.00,Wunderground v.1.15,2013-02-06 01:40:00,
2013-02-05 19:46:00,9.2,3.7,30.10,West,272,0.0,0.0,78,0.00,,,0.00,Wunderground v.1.15,2013-02-06 01:46:00,
2013-02-05 19:51:00,9.2,3.7,30.11,West,272,0.0,0.0,78,0.00,,,0.00,Wunderground v.1.15,2013-02-06 01:51:00,
2013-02-05 19:56:00,9.0,3.5,30.11,West,272,0.0,0.0,78,0.00,,,0.00,Wunderground v.1.15,2013-02-06 01:56:00,
2013-02-05 20:01:00,8.6,3.1,30.11,West,272,0.0,0.0,78,0.00,,,0.00,Wunderground v.1.15,2013-02-06 02:01:00,
2013-02-05 20:07:00,8.1,3.2,30.11,West,269,0.0,0.0,80,0.00,,,0.00,Wunderground v.1.15,2013-02-06 02:07:00,
2013-02-05 20:13:00,7.5,2.6,30.11,West,270,0.0,0.0,80,0.00,,,0.00,Wunderground v.1.15,2013-02-06 02:13:00,
2013-02-05 20:19:00,6.8,2.2,30.11,West,269,0.0,0.0,81,0.00,,,0.00,Wunderground v.1.15,2013-02-06 02:19:00,
2013-02-05 20:24:00,6.5,2.4,30.11,West,269,0.0,0.0,83,0.00,,,0.00,Wunderground v.1.15,2013-02-06 02:24:00,
2013-02-05 20:29:00,6.1,2.0,30.11,West,270,0.0,0.0,83,0.00,,,0.00,Wunderground v.1.15,2013-02-06 02:29:00,
2013-02-05 20:34:00,6.1,2.3,30.11,West,269,0.0,0.0,84,0.00,,,0.00,Wunderground v.1.15,2013-02-06 02:34:00,
2013-02-05 20:40:00,6.0,2.2,30.11,West,269,0.0,0.0,84,0.00,,,0.00,Wunderground v.1.15,2013-02-06 02:40:00,
2013-02-05 20:45:00,6.0,2.5,30.11,West,269,0.0,0.0,85,0.00,,,0.00,Wunderground v.1.15,2013-02-06 02:45:00,
2013-02-05 20:51:00,6.4,3.1,30.12,West,269,0.0,0.0,86,0.00,,,0.00,Wunderground v.1.15,2013-02-06 02:51:00,
2013-02-05 20:56:00,6.9,3.6,30.12,West,269,0.0,0.0,86,0.00,,,0.00,Wunderground v.1.15,2013-02-06 02:56:00,
2013-02-05 21:03:00,7.5,3.9,30.12,West,269,0.0,0.0,85,0.00,,,0.00,Wunderground v.1.15,2013-02-06 03:03:00,
2013-02-05 21:08:00,7.9,4.1,30.12,West,269,0.0,0.0,84,0.00,,,0.00,Wunderground v.1.15,2013-02-06 03:08:00,
2013-02-05 21:13:00,8.2,4.4,30.12,West,269,0.0,0.0,84,0.00,,,0.00,Wunderground v.1.15,2013-02-06 03:13:00,
2013-02-05 21:18:00,8.6,4.5,30.12,West,269,0.0,0.0,83,0.00,,,0.00,Wunderground v.1.15,2013-02-06 03:18:00,
2013-02-05 21:24:00,8.9,4.8,30.12,West,266,0.0,0.0,83,0.00,,,0.00,Wunderground v.1.15,2013-02-06 03:24:00,
2013-02-05 21:30:00,9.4,5.3,30.12,West,266,0.0,0.0,83,0.00,,,0.00,Wunderground v.1.15,2013-02-06 03:30:00,
2013-02-05 21:35:00,9.8,5.4,30.12,West,266,0.0,0.0,82,0.00,,,0.00,Wunderground v.1.15,2013-02-06 03:35:00,
2013-02-05 21:41:00,10.3,6.2,30.12,West,266,0.0,0.0,83,0.00,,,0.00,Wunderground v.1.15,2013-02-06 03:41:00,
2013-02-05 21:46:00,10.7,6.3,30.12,West,259,0.0,0.0,82,0.00,,,0.00,Wunderground v.1.15,2013-02-06 03:46:00,
2013-02-05 21:51:00,11.1,6.7,30.12,West,260,0.0,0.0,82,0.00,,,0.00,Wunderground v.1.15,2013-02-06 03:51:00,
2013-02-05 21:56:00,11.5,6.8,30.12,West,260,0.0,0.0,81,0.00,,,0.00,Wunderground v.1.15,2013-02-06 03:56:00,
2013-02-05 22:01:00,11.7,7.0,30.12,West,259,0.0,0.0,81,0.00,,,0.00,Wunderground v.1.15,2013-02-06 04:01:00,
2013-02-05 22:07:00,11.7,6.7,30.12,West,260,0.0,0.0,80,0.00,,,0.00,Wunderground v.1.15,2013-02-06 04:07:00,
2013-02-05 22:12:00,11.8,6.8,30.12,West,260,0.0,0.0,80,0.00,,,0.00,Wunderground v.1.15,2013-02-06 04:12:00,
2013-02-05 22:18:00,11.9,6.9,30.12,West,260,0.0,0.0,80,0.00,,,0.00,Wunderground v.1.15,2013-02-06 04:18:00,
2013-02-05 22:23:00,11.9,6.9,30.12,West,259,0.0,0.0,80,0.00,,,0.00,Wunderground v.1.15,2013-02-06 04:23:00,
2013-02-05 22:29:00,12.1,7.1,30.12,West,259,0.0,0.0,80,0.00,,,0.00,Wunderground v.1.15,2013-02-06 04:29:00,
2013-02-05 22:35:00,12.2,6.9,30.12,West,260,0.0,0.0,79,0.00,,,0.00,Wunderground v.1.15,2013-02-06 04:35:00,
2013-02-05 22:40:00,12.3,7.0,30.12,West,260,0.0,0.0,79,0.00,,,0.00,Wunderground v.1.15,2013-02-06 04:40:00,
2013-02-05 22:46:00,12.4,7.1,30.11,West,260,0.0,0.0,79,0.00,,,0.00,Wunderground v.1.15,2013-02-06 04:46:00,
2013-02-05 22:51:00,12.4,7.1,30.12,West,260,0.0,0.0,79,0.00,,,0.00,Wunderground v.1.15,2013-02-06 04:51:00,
2013-02-05 22:56:00,12.4,7.1,30.11,West,260,0.0,0.0,79,0.00,,,0.00,Wunderground v.1.15,2013-02-06 04:56:00,
2013-02-05 23:00:00,12.5,7.5,30.11,West,259,0.0,0.0,80,0.00,,,0.00,Wunderground v.1.15,2013-02-06 05:00:00,
2013-02-05 23:01:00,12.5,7.5,30.12,West,259,0.0,0.0,80,0.00,,,0.00,Wunderground v.1.15,2013-02-06 05:01:00,
2013-02-05 23:02:00,12.5,7.5,30.12,West,259,0.0,0.0,80,0.00,,,0.00,Wunderground v.1.15,2013-02-06 05:02:00,
2013-02-05 23:08:00,12.6,7.6,30.11,West,259,0.0,0.0,80,0.00,,,0.00,Wunderground v.1.15,2013-02-06 05:08:00,
2013-02-05 23:09:00,12.6,7.6,30.12,West,260,0.0,0.0,80,0.00,,,0.00,Wunderground v.1.15,2013-02-06 05:09:00,
2013-02-05 23:15:00,12.6,7.6,30.11,West,259,0.0,0.0,80,0.00,,,0.00,Wunderground v.1.15,2013-02-06 05:15:00,
2013-02-05 23:21:00,12.6,7.3,30.11,West,259,0.0,0.0,79,0.00,,,0.00,Wunderground v.1.15,2013-02-06 05:21:00,
2013-02-05 23:26:00,12.6,7.3,30.12,West,259,0.0,0.0,79,0.00,,,0.00,Wunderground v.1.15,2013-02-06 05:26:00,
2013-02-05 23:31:00,12.7,7.7,30.12,West,259,0.0,0.0,80,0.00,,,0.00,Wunderground v.1.15,2013-02-06 05:31:00,
2013-02-05 23:37:00,12.7,7.7,30.12,West,259,0.0,0.0,80,0.00,,,0.00,Wunderground v.1.15,2013-02-06 05:37:00,
2013-02-05 23:42:00,12.8,8.1,30.12,West,259,0.0,0.0,81,0.00,,,0.00,Wunderground v.1.15,2013-02-06 05:42:00,
2013-02-05 23:47:00,12.9,8.2,30.12,West,260,0.0,0.0,81,0.00,,,0.00,Wunderground v.1.15,2013-02-06 05:47:00,
2013-02-05 23:53:00,12.9,8.2,30.12,West,259,0.0,0.0,81,0.00,,,0.00,Wunderground v.1.15,2013-02-06 05:53:00,
2013-02-05 23:58:00,13.0,8.3,30.13,West,259,0.0,0.0,81,0.00,,,0.00,Wunderground v.1.15,2013-02-06 05:58:00,